Left ArrowRight Arrow

44.66885, -90.1718

Hourly Observations for May 5, 2024

Temp ( °F °C ) Dew Point ( °F °C ) Humidity (%) Winds ( mph kmh ) Pressure ( in mb ) Visibility ( mi km ) Precip ( " mm )
12:54 am 00:54 Clear 41 5 39 3.9 93 93 WNW 3 6 30.03 1017 10 16 0.00 0.00
1:54 am 01:54 Clear 39 3.9 37 2.8 93 93 NW 6 9 30.03 1017 10 16 0.00 0.00
2:54 am 02:54 Clear 39 3.9 37 2.8 93 93 NW 8 13 30.03 1017 10 16 0.00 0.00
3:54 am 03:54 Clear 40 4.4 38 3.3 93 93 WNW 7 11 30.05 1018 10 16 0.00 0.00
4:54 am 04:54 Clear 39 3.9 37 2.8 93 93 NNW 9 15 30.05 1018 10 16 0.00 0.00
5:54 am 05:54 Sunny 40 4.4 38 3.3 93 93 NW 3 6 30.06 1018 10 16 0.00 0.00
6:54 am 06:54 Sunny 44 6.7 41 5 89 89 NW 5 7 30.07 1018 10 16 0.00 0.00
7:54 am 07:54 Sunny 50 10 43 6.1 77 77 NNW 5 7 30.09 1019 10 16 0.00 0.00
8:54 am 08:54 Sunny 55 12.8 45 7.2 69 69 WNW 6 9 30.10 1019 10 16 0.00 0.00
9:54 am 09:54 Sunny 57 13.9 44 6.7 62 62 undefined N/A 30.10 1019 10 16 0.00 0.00
10:54 am 10:54 Sunny 60 15.6 41 5 49 49 VRB 6 9 30.09 1019 10 16 0.00 0.00
11:54 am 11:54 Mostly Sunny 61 16.1 42 5.6 50 50 NNW 7 11 30.09 1019 10 16 0.00 0.00
12:54 pm 12:54 Mostly Sunny 63 17.2 44 6.7 50 50 NW 7 11 30.10 1019 10 16 0.00 0.00
1:54 pm 13:54 Sunny 63 17.2 42 5.6 46 46 NW 3 6 30.09 1019 10 16 0.00 0.00
2:54 pm 14:54 Sunny 65 18.3 43 6.1 45 45 undefined N/A 30.08 1019 10 16 0.00 0.00
3:54 pm 15:54 Sunny 67 19.4 42 5.6 40 40 WNW 10 17 30.05 1018 10 16 0.00 0.00
4:54 pm 16:54 Sunny 67 19.4 41 5 39 39 NNW 6 9 30.04 1017 10 16 0.00 0.00
5:54 pm 17:54 Sunny 67 19.4 38 3.3 34 34 WNW 6 9 30.03 1017 10 16 0.00 0.00
6:54 pm 18:54 Sunny 66 18.9 40 4.4 38 38 NNE 3 6 30.02 1017 10 16 0.00 0.00
7:54 pm 19:54 Sunny 64 17.8 38 3.3 38 38 Calm 30.02 1017 10 16 0.00 0.00
8:54 pm 20:54 Clear 58 14.4 40 4.4 51 51 Calm 30.02 1017 10 16 0.00 0.00
9:54 pm 21:54 Clear 57 13.9 41 5 55 55 ENE 3 6 30.03 1017 10 16 0.00 0.00
10:54 pm 22:54 Clear 53 11.7 42 5.6 66 66 ENE 3 6 30.03 1017 10 16 0.00 0.00
11:54 pm 23:54 Clear 51 10.6 42 5.6 71 71 Calm 30.04 1017 10 16 0.00 0.00

Powered by Vaisala Xweather